THOR 5

导读 | 豆包AI

THOR 5卫星于2008年2月11日发射,由挪威相关机构运营,定位于地球静止轨道,主要承担北欧及周边区域的通信广播服务,为电视传输、宽带通信等业务提供支持。它采用成熟卫星平台设计,保障信号稳定覆盖,助力区域通信基础设施建设,至今仍在服务领域发挥重要作用,满足了当地用户对通信覆盖的长期需求。

Basic Information
目录编号:
32487
目录名称:
THOR 5
国际标识:
2008-006A
轨道中心:
EARTH
卫星名称:
THOR 5
卫星全名:
--
卫星状态:
在轨 (已飞行6653 天)
发射日期:
2008-02-11 UTC
国别 :
挪威 (NO)
星等 :
--
Orbit Information
数据来源 国际轨道数据 AOE轨道数据
星历时间 2026-04-30T16:15:29+0800
14小时前
查看轨道信息
2026-04-30T11:00:00+0800
20小时前
查看轨道信息
半长轴 42164.981km 42165.121km
偏心率 0.0002681 0.0002767
轨道倾角 0.014° 0.015°
近地点辐角 159.905° 157.719°
升交点赤经 245.096° 246.403°
平近点角 296.418° 218.208°
近地点 35775.539km 35775.316km
远地点 35798.149km 35798.652km
周期 1436.110分钟 1436.117分钟
每日圈数 1.002709 1.002704
Detailed Information
使用方式:
暂无
2D Orbit Map
3D Orbit Map
Orbit Altitude Analysis Chart
Orbit Inclination Analysis Chart
Orbit Comprehensive Analysis Chart
View Comprehensive Chart